x

8461490 - New London, Ct (nlnc3) Weather Station

12:54 - Wed 17th Sep 2014 All times are EDT. -4 hours from GMT.

  • Wind
    2mph, 6mph gusts
  • Sea Temp 68°f
  • Ar Temp 58°f
  • Sea Pressure 1015.2mb
  • 8461490 - New London, Ct
  • 8461490 - New London, Ct

More Historic Weather Station data

Upgrade to MSW Pro to gain access to the past 30 days of data for over 8000 Wavebouys and Weather Stations around the globe.

Join Pro

Comparision Forecast

View Surf forecast
   
Qua 09/17 12:54 2 6 mph 1015.2mb 68f 58f
12:48 2 7 mph 1015.2mb 68f 58f
12:42 3 6 mph 1015.2mb 68f 58f
12:36 2 6 mph 1015.2mb 68f 58f
12:30 5 6 mph 1015.1mb 68f 58f
12:24 3 6 mph 1015.1mb 68f 59f
12:18 3 6 mph 1015.1mb 68f 59f
12:12 3 7 mph 1015.1mb 68f 59f
12:06 3 6 mph 1015.1mb 68f 59f
12:00 5 6 mph 1015.1mb 68f 60f
Ter 09/16 11:54 3 6 mph 1015.1mb 68f 60f
11:48 3 6 mph 1015.1mb 68f 60f
11:42 3 7 mph 1015.1mb 68f 60f
11:36 5 7 mph 1015.1mb 68f 60f
11:30 3 8 mph 1015.1mb 68f 60f
11:24 1 6 mph 1015.1mb 68f 60f
11:18 2 5 mph 1015mb 68f 60f
11:12 2 3 mph 1015mb 68f 60f
11:06 2 5 mph 1015mb 68f 60f
11:00 2 5 mph 1015mb 68f 60f
10:54 2 5 mph 1014.9mb 68f 60f
10:48 2 3 mph 1014.9mb 68f 60f
10:42 1 2 mph 1014.9mb 68f 61f
10:36 1 2 mph 1015mb 68f 61f
10:30 1 2 mph 1014.9mb 68f 61f
10:24  -  1 mph 1014.9mb 68f 61f
10:18  -  mph 1015mb 68f 61f
10:12  -  2 mph 1015mb 68f 61f
10:06  -  2 mph 1015mb 68f 61f
10:00  -  mph 1014.9mb 68f 61f
9:54  -  mph 1014.8mb 68f 61f
9:48  -  1 mph 1014.8mb 68f 61f
9:42  -  2 mph 1014.8mb 68f 62f
9:36  -  1 mph 1014.8mb 68f 62f
9:30  -  mph 1014.7mb 68f 62f
9:24  -  mph 1014.7mb 68f 62f
9:18  -  mph 1014.7mb 68f 62f
9:12  -  mph 1014.7mb 68f 62f
9:06  -  1 mph 1014.7mb 68f 62f
9:00  -  mph 1014.7mb 68f 62f
8:54  -  1 mph 1014.7mb 68f 62f
8:48  -  mph 1014.6mb 68f 62f
8:42  -  2 mph 1014.6mb 68f 62f
8:36  -  1 mph 1014.7mb 68f 62f
8:30  -  2 mph 1014.7mb 68f 62f
8:24 2
mph
1014.6mb 68f 63f
8:18 1 2 mph 1014.6mb 68f 62f
8:12 1 3 mph 1014.6mb 68f 62f
8:06 2 5 mph 1014.5mb 68f 63f
8:00  -  mph 1014.4mb 68f 63f
7:54  -  5 mph 1014.4mb 68f 63f
7:48 2 5 mph 1014.3mb 68f 63f
7:42 1 3 mph 1014.3mb 68f 63f
7:36  -  2 mph 1014.3mb 68f 63f
7:30 1 3 mph 1014.2mb 68f 63f
7:24  -  6 mph 1014.2mb 68f 63f
7:18 3 6 mph 1014.1mb 68f 64f
7:12 3 5 mph 1014.1mb 68f 64f
7:06 2 5 mph 1014.1mb 68f 64f
7:00 2 3 mph 1014.1mb 68f 64f
6:54 3 6 mph 1014.1mb 68f 64f
6:48 3 6 mph 1014.1mb 68f 64f
6:42 5 7 mph 1014mb 68f 64f
6:36 3 6 mph 1013.9mb 68f 64f
6:30 3 6 mph 1013.9mb 68f 64f
6:24 2 6 mph 1013.9mb 68f 64f
6:18 3 6 mph 1014mb 68f 64f
6:12 3 5 mph 1014mb 68f 64f
6:06 3 5 mph 1014.1mb 68f 64f
6:00 2 5 mph 1014mb 68f 64f
5:54 2 5 mph 1014.1mb 68f 64f
5:48 1 2 mph 1014.1mb 68f 64f
5:42  -  3 mph 1014.2mb 68f 64f
5:36 1 5 mph 1014.2mb 68f 64f
5:30 2 6 mph 1014.2mb 68f 64f
5:24 3 7 mph 1014.2mb 68f 64f
5:18 2 5 mph 1014.1mb 68f 64f
5:12 3 6 mph 1014mb 68f 64f
5:06 3 7 mph 1014mb 68f 65f
5:00 6 7 mph 1013.9mb 68f 65f
4:54 5 7 mph 1013.9mb 68f 65f
4:48 5 6 mph 1013.9mb 68f 65f
4:42 3 7 mph 1013.9mb 68f 65f
4:36 6 8 mph 1013.8mb 68f 65f
4:30 5 8 mph 1013.8mb 68f 65f
4:24 6 8 mph 1013.8mb 68f 66f
4:18 5 8 mph 1013.8mb 68f 66f
4:12 5 8 mph 1013.8mb 68f 65f
4:06 6 9 mph 1013.8mb 68f 65f
4:00 6 9 mph 1013.8mb 68f 66f
3:54 8 10 mph 1013.9mb 68f 66f
3:48 7 10 mph 1013.9mb 68f 66f
3:42 7 11 mph 1013.9mb 68f 66f
3:36 9 13 mph 1013.9mb 68f 67f
3:30 8 11 mph 1013.9mb 68f 66f
3:24 8 11 mph 1013.9mb 68f 67f
3:18 6 10 mph 1013.9mb 68f 67f
3:12 6 11 mph 1013.9mb 68f 67f
3:06 8 11 mph 1013.9mb 68f 67f
3:00 6 9 mph 1013.9mb 68f 67f
2:54 6 11 mph 1013.9mb 68f 67f
2:48 7 10 mph 1013.8mb 68f 67f
2:42 7 10 mph 1013.9mb 68f 68f
2:36 7 10 mph 1013.9mb 68f 69f
2:30 7 9 mph 1013.9mb 68f 69f
2:24 6 8 mph 1013.9mb 68f 68f
2:18 7 8 mph 1014mb 68f 67f
2:12 3 5 mph 1014mb 68f 67f
2:06 2 3 mph 1014.1mb 68f 68f
2:00 2 3 mph 1014.1mb 68f 68f
1:54 2 3 mph 1014.2mb 68f 67f
1:48  -  mph 1014.2mb 68f 66f
1:42  -  mph 1014.2mb 68f 66f
1:36  -  1 mph 1014.2mb 68f 65f
1:30  -  3 mph 1014.3mb 68f 65f
1:24  -  2 mph 1014.3mb 68f 65f
1:18 1 2 mph 1014.3mb 68f 64f
1:12 2 3 mph 1014.4mb 68f 65f
1:06 3 5 mph 1014.3mb 68f 64f
1:00 3 5 mph 1014.4mb 68f 63f
11:42 6 8 mph 1015.2mb - 63f
11:36 6 7 mph 1015.3mb - 63f
11:30 3 6 mph 1015.3mb 68f 64f
11:24 3 5 mph 1015.3mb 68f 64f
11:18 3 6 mph 1015.3mb 68f 64f
11:12 3 6 mph 1015.4mb 68f 64f
11:06 3 6 mph 1015.2mb 68f 64f
11:00 5 6 mph 1015.1mb 68f 64f
10:54 3 5 mph 1015.3mb 68f 63f
10:48 3 5 mph 1015.4mb 68f 63f
10:42 3 5 mph 1015.5mb 68f 63f
10:30  -  mph 1015.5mb - -
10:24  -  mph - 67f -
10:18  -  mph - 67f -
10:12  -  mph 1015.6mb - -
9:54  -  mph 1015.7mb - -
9:48  -  mph - - 64f
9:42  -  mph - - 64f
9:36  -  mph - - 63f
9:30  -  mph - - 63f
9:24  -  mph - - 63f
9:18  -  mph - - 63f
9:12  -  mph - - 63f
9:06  -  mph - - 63f
9:00 1 3 mph - - 63f
8:54  -  3 mph - - 63f
8:48 2
mph
1015.2mb - 62f
8:42 2 3 mph 1014.9mb - 60f
8:36 2 3 mph 1014.9mb - 59f
8:30 5 7 mph - - 57f
8:24 6 7 mph - - 57f
8:18 5 6 mph 1015.4mb - 57f
8:12 6 7 mph 1015.6mb - 56f
8:06 3 6 mph 1015.5mb - 56f
8:00 6 8 mph 1015.5mb 67f 55f
7:54 7 8 mph 1015.7mb 67f 56f
7:48 6 8 mph 1015.8mb 67f 55f
7:42 6 7 mph 1015.8mb 67f 55f
7:36 5 6 mph 1015.9mb 67f 55f
7:30  -  mph 1016.1mb 67f 54f
7:24  -  mph 1016.2mb 67f 54f
7:18 5 8 mph 1016.3mb 67f 54f
7:12 6 8 mph 1016.3mb 67f 54f
7:06 6 8 mph 1016.4mb 67f 54f
7:00 6 7 mph 1016.3mb 67f 54f
6:54 5 6 mph 1016.2mb 67f 54f
6:48 2 6 mph 1016.2mb 67f 54f
6:42 3 7 mph 1016.3mb 67f 55f
6:36 5 7 mph 1016.5mb 67f 54f
6:30 5 7 mph - 67f 54f
6:24 5 7 mph - 67f 54f
6:18 6 8 mph 1016.4mb 67f 54f
6:12 5 7 mph 1016.4mb 67f 54f
6:06 6 9 mph 1016.4mb 68f 54f
6:00 5 7 mph 1016.4mb 68f 54f
5:54 5 7 mph 1016.4mb 68f 54f
5:48 6 7 mph 1016.5mb 68f 54f
5:42 5 7 mph 1016.6mb 68f 54f
5:36 5 8 mph 1016.6mb 68f 54f
5:30 6 8 mph 1016.6mb 68f 54f
5:24 5 8 mph 1016.7mb 68f 54f
5:18 5 7 mph 1016.7mb 68f 54f
5:12 5 7 mph 1016.8mb 68f 54f
5:06 5 7 mph 1016.8mb 68f 55f
5:00 5 6 mph 1016.7mb 68f 54f
4:54 3 6 mph 1016.8mb 68f 54f
4:48 5 7 mph 1016.8mb 68f 54f
4:42 5 7 mph 1016.9mb 68f 54f
4:36 3 6 mph 1016.9mb 68f 54f
4:30 5 6 mph 1016.9mb 68f 54f
4:24 5 7 mph 1016.7mb 68f 54f
4:18 5 7 mph 1016.7mb 68f 54f
4:12 6 7 mph 1016.7mb 68f 54f
4:06 6 7 mph 1016.7mb 68f 55f
4:00 6 7 mph 1016.7mb 68f 55f
3:54 5 6 mph 1016.7mb 68f 55f
3:48 5 6 mph 1016.8mb 68f 54f
3:42 3 6 mph 1016.7mb 68f 54f
3:36 3 6 mph 1016.7mb 68f 55f
3:30 5 7 mph 1016.7mb 68f 54f
3:24 5 7 mph 1016.8mb 68f 54f
3:18  -  mph 1016.9mb - -
3:12 6 7 mph 1017mb - 55f
3:06 6 7 mph 1016.9mb - 55f
3:00 5 7 mph 1016.9mb - 55f
2:54  -  mph 1017.1mb - 55f
2:48 6 8 mph 1017.1mb - 55f
2:42  -  mph - - 55f
2:30  -  mph - - 55f
2:24  -  mph - - 55f
2:18  -  mph - - 55f
2:12  -  mph - - 54f
2:06  -  mph - - 54f
2:00  -  mph - - 55f
1:48  -  mph - 68f 55f
1:42  -  mph - 68f 55f
1:36  -  mph - 68f 55f
1:30  -  mph 1017.8mb 68f 55f
1:24 5 7 mph 1017.8mb 68f 55f
1:18  -  mph 1017.9mb 68f 55f
1:12 5 6 mph 1018.1mb 68f 55f
1:06 5 6 mph 1018.1mb 68f 55f
1:00  -  mph 1018.2mb 68f -
12:54 6 7 mph 1018.1mb 68f -
12:48  -  mph 1018.1mb 68f 55f
12:42 5 7 mph 1018.3mb 68f 55f
12:36 6 7 mph 1018.2mb 68f 55f
12:30  -  mph - 68f -
12:24  -  mph - 68f -
12:18  -  mph - 68f -
12:12  -  mph - 68f -
12:06  -  mph - - 56f
12:00  -  mph - - 56f
Seg 09/15 11:54  -  mph 1018.3mb - -
11:48  -  mph 1018.4mb - -
11:42  -  mph 1018.4mb - -
11:36  -  mph 1018.3mb - 57f
11:30  -  mph 1018.2mb - 57f
11:24 2 3 mph 1018.4mb - 57f
11:18  -  mph 1018.4mb 68f 57f
11:12  -  mph 1018.4mb 68f 56f
11:06  -  mph 1018.2mb 68f 56f
11:00  -  mph - - 57f
10:54 1 2 mph - - 57f
10:48  -  mph 1018.5mb - -
10:42  -  mph 1018.6mb - -
10:36  -  mph 1018.4mb - -
10:30  -  mph - 68f 58f
10:24  -  mph - 68f 58f
10:18 2 6 mph - 68f 58f
10:12 3 6 mph - 68f 58f
10:06 5 6 mph - 68f 58f
10:00 5 6 mph 1018.9mb 68f 58f
9:54 3 6 mph 1018.9mb 68f 58f
9:48 3 5 mph 1018.8mb 68f 58f
9:42 2 5 mph 1018.8mb 68f 59f
9:36 3 5 mph 1018.8mb 68f 59f
9:30 2 3 mph 1018.8mb 68f 59f
9:24 1 3 mph 1018.9mb 68f 59f
9:18 2 3 mph 1018.9mb 68f 60f
9:12 2
mph
1019mb 68f 60f
9:06 1 2 mph 1019mb 68f 60f
9:00 1 2 mph 1019mb 68f 60f
8:54 2 5 mph 1019.2mb 68f 60f
8:48 2 3 mph 1019.3mb 68f 61f
8:42 2 3 mph 1019.2mb 68f 61f
8:36 1 3 mph 1019.3mb 69f 61f
8:30 2 3 mph 1019.4mb 69f 61f
8:24 2 5 mph 1019.4mb 69f 62f
8:18 2 3 mph 1019.3mb 69f 62f
8:12 1 3 mph 1019.3mb 69f 62f
8:06 2 3 mph 1019.2mb 69f 62f
8:00  -  3 mph 1019.2mb 69f 63f
7:54 1 3 mph 1019.1mb 69f 63f
7:48 1 3 mph 1019.1mb 69f 63f
7:42 2 5 mph 1019.1mb 69f 63f
7:36 2 3 mph 1018.9mb 69f 63f
7:30 2 6 mph 1019mb 69f 63f
7:24 2 6 mph 1019mb 69f 63f
7:18 3 6 mph 1019.1mb 69f 63f
7:12 2 5 mph 1019.1mb 69f 64f
7:06 2 5 mph 1019.1mb 69f 64f
7:00 3 6 mph 1019.1mb 69f 64f
6:54 5 7 mph 1019mb 69f 64f
6:48 3 6 mph 1018.8mb 69f 65f
6:42 2 3 mph 1018.9mb 69f 65f
6:36 3 6 mph 1018.9mb 69f 65f
6:30 5 7 mph 1018.9mb 69f 65f
6:24 5 8 mph 1018.8mb 69f 65f
6:18 6 9 mph 1018.8mb 69f 65f
6:12 5 7 mph 1018.8mb 69f 66f
6:06 6 10 mph 1019mb 69f 66f
6:00 6 8 mph 1019mb 69f 66f
5:54 8 10 mph 1019.2mb 69f 66f
5:48 6 13 mph 1019.4mb 69f 67f
5:42 7 10 mph 1019.4mb 69f 67f
5:36 8 11 mph 1019.3mb 69f 67f
5:30 6 11 mph 1019.3mb 69f 68f
5:24 7 10 mph 1019.2mb 69f 67f
5:18 3 13 mph 1019.2mb 69f 68f
5:12 9 11 mph 1019.1mb 69f 68f
5:06 7 11 mph 1019mb 68f 67f
5:00 8 11 mph 1019.1mb 68f 68f
4:54 8 14 mph 1019.2mb 68f 67f
4:48 6 13 mph 1019.2mb 68f 68f
4:42 8 14 mph 1019.3mb 68f 68f
4:36 6 11 mph 1019.4mb 69f 67f
4:30 8 11 mph 1019.4mb 68f 67f
4:24 6 10 mph 1019.4mb 68f 68f
4:18 8 11 mph 1019.3mb 68f 68f
4:12 7 11 mph 1019.3mb 68f 68f
4:06 8 10 mph 1019.3mb 68f 68f
4:00 7 11 mph 1019.5mb 68f 67f
3:54 7 9 mph 1019.5mb 69f 68f
3:48 7 10 mph 1019.6mb 69f 68f
3:42 7 11 mph 1019.6mb 69f 68f
3:36 6 10 mph 1019.6mb 69f 68f
3:30 6 9 mph 1019.7mb 68f 68f
3:24 6 10 mph 1019.6mb 68f 68f
3:18 5 9 mph 1019.6mb 68f 68f
3:12 8 11 mph 1019.6mb 68f 68f
3:06 5 11 mph 1019.6mb 69f 68f
3:00 9 11 mph 1019.8mb 69f 69f
2:54 3 8 mph 1019.9mb 69f 69f
2:48 7 10 mph 1019.9mb 69f 69f
2:42 7 15 mph 1019.9mb 68f 68f
2:36 6 10 mph 1019.9mb 68f 69f
2:30 3 14 mph 1020mb 68f 69f
2:24 8 14 mph 1020mb 68f 68f
2:18 10 14 mph 1020.1mb 68f 67f
2:12 10 13 mph 1020.3mb 68f 67f
2:06 6 11 mph 1020.3mb 68f 67f
2:00 13 14 mph 1020.4mb 68f 67f
1:54 7 11 mph 1020.5mb 68f 66f
1:48 8 11 mph 1020.6mb 68f 66f
1:42 11 14 mph 1020.7mb 68f 65f
1:36 10 14 mph 1020.7mb 68f 66f
1:30 2 7 mph 1020.8mb 68f 68f
1:24 5 7 mph 1020.7mb 68f 68f
1:18 5 9 mph 1020.9mb 68f 69f
1:12 7 13 mph 1020.9mb 68f 68f
1:06 5 11 mph 1020.9mb 68f 67f
1:00 7 13 mph 1020.9mb 68f 67f
12:54 6 10 mph 1020.9mb 68f 68f
12:48 3 8 mph 1021mb 68f 67f
12:42 2 6 mph 1021.1mb 68f 66f
12:36 3 5 mph 1021.2mb 68f 65f
12:30 2 7 mph 1021.3mb 68f 67f
12:24 2 6 mph 1021.4mb 68f 66f
12:18 2 5 mph 1021.5mb 68f 64f
12:12 5 6 mph 1021.6mb 68f 64f
12:06 1 3 mph 1021.6mb 68f 64f
12:00 2 5 mph 1021.7mb 68f 64f
11:54 3 5 mph 1021.8mb 68f 64f
11:48 5 6 mph 1021.8mb 68f 63f
11:42 5 6 mph 1021.8mb 68f 63f
11:36 3 5 mph 1021.9mb 68f 63f
11:30 2 6 mph 1022mb 68f 64f
11:24 2 5 mph 1022.2mb 68f 62f
11:18 3 6 mph 1022.2mb 68f 62f
11:12 3 5 mph 1022.3mb 68f 62f
11:06 3 6 mph 1022.4mb 68f 61f
11:00 3 6 mph 1022.6mb 68f 61f
10:54 2 6 mph 1022.6mb 68f 61f
10:48 3 6 mph 1022.6mb 68f 61f
10:42 3 7 mph 1022.6mb 68f 61f
10:36 2 6 mph 1022.8mb 68f 60f
10:30 3 7 mph 1022.8mb 68f 60f
10:24 2 7 mph 1022.8mb 68f 60f
10:18 5 6 mph 1022.9mb 68f 60f
10:12 3 6 mph 1022.9mb 68f 59f
10:06 5 7 mph 1022.9mb 68f 59f
10:00 5 7 mph 1022.9mb 67f 58f
9:54 5 7 mph 1022.8mb 67f 58f
9:48 5 7 mph 1022.9mb 68f 58f
9:42 3 8 mph 1023mb 68f 57f
9:36 3 8 mph 1023.1mb 67f 57f
9:30 3 8 mph 1023.1mb 68f 57f
9:24 7 10 mph 1023.1mb 67f 55f
9:18 7 10 mph 1023.1mb 67f 55f
9:12 9 13 mph 1023mb 67f 54f
9:06 6 10 mph 1023mb 67f 54f
9:00 8 13 mph 1023.1mb 67f 54f
8:54 8 11 mph 1023.1mb 67f 53f
8:48 6 10 mph 1023mb 67f 53f
8:42 7 11 mph 1023mb 67f 53f
8:36 9 13 mph 1023mb 68f 52f
8:30 9 13 mph 1022.9mb 67f 52f
8:24 7 11 mph 1023mb 67f 52f
8:18 9 13 mph 1023mb 67f 51f
8:12 9 13 mph 1023mb 67f 51f
8:06 8 11 mph 1023.1mb 67f 51f
8:00 10 13 mph 1023.2mb 67f 51f
7:54 9 11 mph 1023.1mb 67f 51f
7:48 7 10 mph 1023.1mb 67f 51f
7:42 7 11 mph 1023.1mb 67f 51f
7:36 5 10 mph 1023.1mb 67f 51f
7:30 6 11 mph 1023.1mb 67f 51f
7:24 6 10 mph 1023.1mb 67f 51f
7:18 6 11 mph 1023.1mb 67f 50f
7:12 6 11 mph 1023mb 68f 50f
7:06 7 10 mph 1023mb 68f 50f
7:00 6 10 mph 1023mb 68f 50f
6:54 5 10 mph 1023mb 68f 50f
6:48 6 9 mph 1023mb 68f 50f
6:42 5 9 mph 1022.9mb 68f 50f
6:36 6 10 mph 1022.9mb 68f 50f
6:30 3 8 mph 1022.9mb 68f 50f
6:24 3 8 mph 1022.9mb 68f 50f
6:18 7 13 mph 1022.9mb 68f 50f
6:12 3 11 mph 1022.9mb 68f 50f
6:06 6 10 mph 1022.8mb 68f 50f
6:00 6 11 mph 1022.7mb 68f 50f
5:54 3 10 mph 1022.7mb 68f 51f
5:48 5 11 mph 1022.7mb 68f 51f
5:42 9 13 mph 1022.6mb 68f 50f
5:36 7 13 mph 1022.5mb 68f 50f
5:30 7 14 mph 1022.5mb 68f 51f
5:24 7 11 mph 1022.4mb 68f 51f
5:18 7 10 mph 1022.3mb 68f 50f
5:12 6 10 mph 1022.3mb 68f 51f
5:06 9 15 mph 1022.2mb 68f 50f
5:00 7 13 mph 1022.1mb 68f 50f
4:54 7 13 mph 1022.1mb 69f 51f
4:48 5 8 mph 1022mb 69f 50f
4:42 5 11 mph 1021.9mb 69f 51f
4:36 6 10 mph 1021.9mb 69f 51f
4:30 7 11 mph 1021.9mb 69f 51f
4:24 8 11 mph 1021.9mb 69f 51f
4:18 8 11 mph 1021.9mb 69f 51f
4:12 8 11 mph 1021.8mb 69f 51f
4:06 6 10 mph 1021.8mb 69f 51f
4:00 6 13 mph 1021.8mb 69f 51f
3:54 8 13 mph 1021.9mb 69f 51f
3:48 9 13 mph 1021.8mb 69f 51f
3:42 6 11 mph 1021.7mb 69f 51f
3:36 10 14 mph 1021.7mb 69f 51f
3:30 8 13 mph 1021.7mb 69f 52f
3:24 8 11 mph 1021.6mb 69f 51f
3:18 8 13 mph 1021.6mb 69f 52f
3:12 7 15 mph 1021.6mb 69f 52f
3:06 9 14 mph 1021.6mb 69f 52f
3:00 7 13 mph 1021.6mb 69f 52f
2:54 2 9 mph 1021.6mb 69f 52f
2:48 3 8 mph 1021.5mb 69f 52f
2:42 6 13 mph 1021.6mb 69f 52f
2:36 7 14 mph 1021.7mb 69f 52f
2:30 8 14 mph 1021.8mb 69f 53f
2:24 8 14 mph 1021.8mb 69f 53f
2:18 9 13 mph 1021.8mb 69f 53f
2:12 9 13 mph 1021.7mb 69f 53f
2:06 6 10 mph 1021.7mb 69f 53f
2:00 5 8 mph 1021.6mb 69f 53f
1:54 6 8 mph 1021.6mb 69f 53f
1:48 3 6 mph 1021.6mb 69f 53f
1:42 5 6 mph 1021.6mb 69f 53f
1:36 5 7 mph 1021.7mb 69f 53f
1:30 3 7 mph 1021.7mb 69f 54f
1:24 5 7 mph 1021.7mb 69f 54f
1:18 3 6 mph 1021.7mb 69f 54f
1:12 5 7 mph 1021.7mb 69f 54f
1:06 5 7 mph 1021.7mb 69f 54f
1:00 5 9 mph 1021.6mb 69f 54f
12:54 6 8 mph 1021.6mb 69f 54f
12:48 5 7 mph 1021.6mb 69f 54f
12:42 6 7 mph 1021.6mb 69f 54f
12:36 3 6 mph 1021.6mb 69f 54f
12:30 3 6 mph 1021.6mb 69f 54f
12:24 5 7 mph 1021.6mb 69f 54f
12:18 3 6 mph 1021.6mb 69f 54f
12:12 3 6 mph 1021.7mb 69f 54f
12:06 3 7 mph 1021.7mb 69f 54f
12:00 5 6 mph 1021.7mb 69f 54f
Dom 09/14 11:54 5 7 mph 1021.7mb 69f 54f
11:48 5 7 mph 1021.7mb 69f 54f
11:42 5 7 mph 1021.6mb 69f 55f
11:36 5 7 mph 1021.6mb 69f 55f
11:30 5 8 mph 1021.6mb 69f 55f
11:24 6 8 mph 1021.6mb 69f 55f
11:18 6 7 mph 1021.6mb 69f 55f
11:12 6 7 mph 1021.5mb 69f 55f
11:06 5 7 mph 1021.6mb 69f 56f
11:00 5 6 mph 1021.5mb 69f 56f
10:54 6 7 mph 1021.6mb 69f 56f
10:48 5 8 mph 1021.6mb 69f 56f
10:42 5 7 mph 1021.6mb 69f 57f
10:36 6 7 mph 1021.5mb 69f 57f
10:30 5 6 mph 1021.5mb 69f 57f
10:24 3 5 mph 1021.4mb 69f 58f
10:18  -  2 mph 1021.4mb 69f 57f
10:12 2 3 mph 1021.6mb 69f 58f
10:06 3 6 mph 1021.5mb 69f 58f
10:00 5 6 mph 1021.5mb 69f 58f
9:54 5 6 mph 1021.6mb 69f 58f
9:48 5 6 mph 1021.6mb 69f 58f
9:42 3 6 mph 1021.5mb 69f 58f
9:36 3 7 mph 1021.5mb 69f 58f
9:30 6 7 mph 1021.6mb 69f 58f
9:24 5 7 mph 1021.6mb 69f 58f
9:18 6 7 mph 1021.6mb 69f 59f
9:12 5 6 mph 1021.6mb 69f 59f
9:06 5
mph
1021.6mb 69f 59f
9:00 3 5 mph 1021.6mb 69f 60f
8:54 2 3 mph 1021.7mb 69f 60f
8:48 1 3 mph 1021.7mb 69f 60f
8:42 2 3 mph 1021.7mb 69f 60f
8:36 2 3 mph 1021.8mb 69f 61f
8:30 2 3 mph 1021.8mb 69f 61f
8:24 2 5 mph 1021.8mb 69f 61f
8:18 2 3 mph 1021.7mb 69f 62f
8:06 2 3 mph 1021.7mb 69f 62f
8:00 3 5 mph 1021.7mb 69f 62f
7:54 2 6 mph 1021.6mb 69f 62f
7:48 3 5 mph 1021.6mb 69f 62f
7:42 2 5 mph 1021.5mb 69f 62f
7:36 3 5 mph 1021.6mb 69f 63f
7:30 2 6 mph 1021.5mb 69f 63f
7:24 3 6 mph 1021.5mb 69f 63f
7:18 2 3 mph 1021.3mb 69f 63f
7:12 2
mph
1021.3mb 69f 63f
7:06 2
mph
1021.3mb 69f 63f
7:00 2 5 mph 1021.3mb 69f 64f
6:54 1 5 mph 1021.3mb 69f 64f
6:48 2 5 mph 1021.2mb 69f 64f
6:42 2 3 mph 1021.2mb 69f 65f
6:36 2 3 mph 1021.2mb 69f 65f
6:30 2 3 mph 1021.1mb 69f 65f
6:24 1 5 mph 1021.2mb 69f 65f
6:18 2 3 mph 1021.2mb 69f 66f
6:12 2 5 mph 1021.1mb 69f 66f
6:06 3 5 mph 1021.2mb 69f 66f
6:00 2 5 mph 1021.2mb 69f 67f
5:54 2 5 mph 1021mb 69f 67f
5:48 2 5 mph 1021mb 69f 67f
5:42 2 5 mph 1021.1mb 69f 67f
5:36 3 6 mph 1021mb 69f 67f
5:30 2 6 mph 1021mb 69f 67f
5:24 3 6 mph 1020.9mb 69f 68f
5:18 3 6 mph 1020.9mb 69f 68f
5:12 3 6 mph 1021mb 69f 68f
5:06 2 5 mph 1021.1mb 69f 67f
5:00 3 6 mph 1021mb 69f 68f
4:54 5 7 mph 1021mb 69f 67f
4:48 5 8 mph 1021mb 69f 67f
4:42 5 8 mph 1021.1mb 69f 67f
4:36 3 6 mph 1021.1mb 69f 68f
4:30 3 6 mph 1021.1mb 69f 68f
4:24 5 7 mph 1021mb 69f 67f
4:18 5 8 mph 1021.1mb 69f 67f
4:12 5 7 mph 1021.1mb 69f 68f
4:06 3 5 mph 1021.1mb 69f 68f
4:00 3 6 mph 1021mb 69f 67f
3:54 3 6 mph 1021mb 69f 68f
3:48 3 7 mph 1021mb 69f 68f
3:42 3 7 mph 1021mb 69f 68f
3:36 5 7 mph 1021mb 69f 68f
3:30 5 6 mph 1021mb 69f 67f
3:24 5 6 mph 1021mb 69f 66f
3:18 2 8 mph 1021mb 69f 67f
3:12 3 8 mph 1020.9mb 69f 67f
3:06 5 8 mph 1021mb 69f 67f
3:00 3 6 mph 1021.1mb 69f 67f
2:54 6 8 mph 1021.1mb 69f 67f
2:48 5 8 mph 1021.1mb 69f 68f
2:42 2 6 mph 1021.3mb 69f 68f
2:36 5 7 mph 1021.4mb 69f 68f
2:30 2 5 mph 1021.4mb 69f 66f
2:24 2 6 mph 1021.5mb 69f 66f
2:18 3 6 mph 1021.6mb 69f 65f
2:12 3 6 mph 1021.6mb 69f 65f
2:06 3 7 mph 1021.6mb 69f 65f
2:00 5 9 mph 1021.7mb 69f 66f
1:54 3 6 mph 1021.7mb 69f 66f
1:48 5 7 mph 1021.8mb 69f 64f
1:42 3 7 mph 1021.7mb 69f 64f
1:36 3 6 mph 1021.8mb 69f 64f
1:30 3 6 mph 1021.8mb 69f 64f
1:24 5 6 mph 1021.9mb 69f 64f
1:18 3 7 mph 1022mb 69f 64f
1:12 5 8 mph 1022mb 69f 64f
1:06 6 8 mph 1022mb 69f 64f
1:00 3 6 mph 1022.1mb 69f 63f
12:54 5 7 mph 1022.1mb 69f 64f
12:48 3 7 mph 1022.2mb 69f 64f
12:42 6 8 mph 1022.3mb 69f 63f
12:36 3 7 mph 1022.3mb 69f 63f
12:30 5 6 mph 1022.3mb 69f 62f
12:24 5 7 mph 1022.3mb 69f 62f
12:18 5 10 mph 1022.3mb 69f 62f
12:12 6 8 mph 1022.2mb 69f 62f
12:06 7 10 mph 1022.2mb 69f 61f
12:00 6 9 mph 1022.3mb 69f 61f
11:54 5 11 mph 1022.4mb 69f 62f
11:48 7 10 mph 1022.4mb 69f 62f
11:42 5 10 mph 1022.4mb 69f 61f
11:36 6 10 mph 1022.5mb 69f 61f
11:30 7 13 mph 1022.5mb 69f 60f
11:24 8 13 mph 1022.6mb 69f 60f
11:18 7 13 mph 1022.5mb 69f 60f
11:12 8 14 mph 1022.6mb 69f 60f
11:06 5 11 mph 1022.7mb 69f 60f
11:00 6 13 mph 1022.7mb 69f 60f
10:54 8 13 mph 1022.8mb 69f 59f
10:48 7 9 mph 1022.9mb 69f 59f
10:42 5 13 mph 1022.9mb 69f 59f
10:36 9 11 mph 1022.9mb 69f 58f
10:30 6 14 mph 1023mb 69f 59f
10:24 6 9 mph 1023.1mb 69f 58f
10:18 3 11 mph 1023.1mb 69f 58f
10:12 9 15 mph 1023.1mb 69f 57f
10:06 6 15 mph 1023.1mb 69f 58f
10:00 9 15 mph 1023.1mb 69f 57f
9:54 9 15 mph 1023.2mb 69f 57f
9:48 9 17 mph 1023.1mb 69f 56f
9:42 10 16 mph 1023.1mb 69f 56f
9:36 8 15 mph 1023mb 68f 56f
9:30 3 13 mph 1023mb 68f 57f
9:24 8 14 mph 1022.9mb 68f 56f
9:18 3 8 mph 1023mb 68f 57f
9:12 3 13 mph 1023mb 68f 56f
9:06 6 14 mph 1022.9mb 68f 56f
9:00 8 15 mph 1022.9mb 68f 56f
8:54 9 14 mph 1022.8mb 68f 56f
8:48 9 20 mph 1022.7mb 68f 56f
8:42 11 17 mph 1022.6mb 68f 55f
8:36 6 14 mph 1022.6mb 68f 56f
8:30 9 14 mph 1022.5mb 68f 55f
8:24 8 14 mph 1022.6mb 68f 55f
8:18 9 14 mph 1022.7mb 68f 55f
8:12 7 10 mph 1022.6mb 68f 55f
8:06 6 11 mph 1022.6mb 68f 55f
8:00 7 11 mph 1022.6mb 68f 55f
7:54 8 13 mph 1022.6mb 68f 55f
7:48 8 13 mph 1022.6mb 68f 54f
7:42 7 11 mph 1022.6mb 68f 54f
7:36 7 13 mph 1022.6mb 68f 54f
7:30 8 14 mph 1022.4mb 68f 54f
7:24 7 11 mph 1022.3mb 68f 54f
7:18 7 13 mph 1022.3mb 68f 54f
7:12 7 11 mph 1022.2mb 68f 54f
7:06 6 13 mph 1022.2mb 68f 53f
7:00 6 11 mph 1022.1mb 68f 53f
6:54 8 10 mph 1022mb 68f 53f
6:48 7 10 mph 1022mb 68f 52f
6:42 7 10 mph 1021.9mb 68f 52f
6:36 6 14 mph 1021.7mb 68f 52f
6:30 7 11 mph 1021.7mb 68f 52f
6:24 6 13 mph 1021.6mb 68f 53f
6:18 7 11 mph 1021.5mb 68f 53f
6:12 7 10 mph 1021.4mb 68f 53f
6:06 6 11 mph 1021.4mb 68f 53f
6:00 6 10 mph 1021.3mb 68f 53f
5:54 7 10 mph 1021.2mb 68f 53f
5:48 6 10 mph 1021.2mb 68f 53f
5:42 5 10 mph 1021.1mb 68f 53f
5:36 6 8 mph 1021.1mb 68f 52f
5:30 5 8 mph 1021mb 68f 52f
5:24 7 10 mph 1021mb 68f 52f
5:18 5 7 mph 1020.9mb 68f 52f
5:12 3 6 mph 1020.8mb 68f 52f
5:06 5 7 mph 1020.7mb 68f 53f
5:00 5 8 mph 1020.7mb 68f 53f
4:54 2 7 mph 1020.7mb 68f 53f
4:48 3 7 mph 1020.6mb 68f 53f
4:42 5 7 mph 1020.5mb 68f 53f
4:36 5 8 mph 1020.5mb 68f 53f
4:30 5 8 mph 1020.5mb 69f 53f
4:24 5 8 mph 1020.5mb 69f 53f
4:18 2 7 mph 1020.4mb 69f 53f
4:12 5 9 mph 1020.3mb 69f 53f
4:06 6 8 mph 1020.3mb 69f 54f
4:00 3 7 mph 1020.3mb 69f 54f
3:54 5 8 mph 1020.1mb 69f 54f
3:48 6 8 mph 1020.1mb 69f 54f
3:42 5 7 mph 1020.1mb 69f 54f
3:36 3 8 mph 1020.1mb 69f 54f
3:30 5 8 mph 1020mb 69f 55f
3:24 6 8 mph 1020mb 69f 55f
3:18 6 8 mph 1019.9mb 69f 55f
3:12 5 9 mph 1020mb 69f 55f
3:06 5 9 mph 1020mb 69f 55f
3:00 6 10 mph 1019.9mb 69f 55f
2:54 5 8 mph 1019.9mb 69f 55f
2:48 6 9 mph 1019.9mb 69f 55f
2:42 6 10 mph 1019.9mb 69f 56f
2:18 6 9 mph 1019.5mb 69f 56f
2:00 5 9 mph 1019.6mb 69f 56f
1:54 3 7 mph 1019.5mb 69f 57f
1:48 5 8 mph 1019.5mb 69f 57f
1:42 3 7 mph 1019.5mb 69f 57f
1:36 5 7 mph 1019.5mb 69f 57f
1:30 3 6 mph 1019.4mb 69f 57f
1:24 3 5 mph 1019.4mb 69f 57f
1:18 2 3 mph 1019.4mb 69f 57f
1:12 2 3 mph 1019.4mb 69f 57f
1:06 2 3 mph 1019.4mb 69f 58f
1:00 1 3 mph 1019.4mb 69f 58f
12:54 2 3 mph 1019.3mb 69f 58f
12:48 2 3 mph 1019.2mb 69f 58f
12:42 2 3 mph 1019.2mb 69f 58f
12:36  -  3 mph 1019.2mb 69f 58f
12:30 2 5 mph - 69f 58f
12:24 2 7 mph - 69f 59f
12:18 3 6 mph - 69f 59f
12:12 3 6 mph 1019.3mb 69f 59f
12:06 3 6 mph 1019.2mb 69f 59f
12:00 5 6 mph 1019.2mb 69f 59f
Sáb 09/13 11:36 2 5 mph 1019.4mb 69f 58f
11:30 2 6 mph 1019.5mb 69f 58f
11:24 2 5 mph 1019.5mb 69f 59f
11:18 2 3 mph 1019.5mb 69f 59f
11:12 2 3 mph 1019.7mb 69f 59f
11:06 2 6 mph 1019.6mb 69f 59f
11:00 3 7 mph 1019.6mb 69f 59f
10:36 5 8 mph 1019.5mb 69f 59f
10:30 5 8 mph 1019.4mb 69f 59f
10:12 6 7 mph 1019.1mb 69f 59f
10:06 3 6 mph 1019.1mb 69f 59f
9:48 3 5 mph 1019.1mb 69f 60f
9:42  -  5 mph 1019mb 69f 60f
9:36 2 5 mph 1019mb 69f 60f
9:30 3 6 mph - - -
9:24 5 6 mph 1019mb 69f 59f
9:18 3 6 mph 1018.9mb 69f 59f
9:12 5 7 mph 1018.9mb 69f 59f
9:06 6 8 mph 1019.1mb 69f 60f
9:00 5 6 mph 1019mb 69f 60f
8:54  -  6 mph 1018.9mb 69f 60f
8:48 5 6 mph 1018.9mb 69f 60f
8:42 3 6 mph 1018.9mb 69f 60f
8:36 5 6 mph 1018.9mb 69f 60f
8:30 3 6 mph 1018.8mb 69f 60f
8:24 2 6 mph 1018.7mb 69f 60f
8:18 2 5 mph 1018.8mb 69f 60f
8:12 2 5 mph 1018.7mb 69f 60f
8:06 2 5 mph 1018.7mb 69f 60f
8:00 2 5 mph 1018.7mb 69f 59f
7:54 2 3 mph 1018.8mb 69f 59f
7:48 2 3 mph 1018.8mb 69f 59f
7:42 2 3 mph 1018.7mb 69f 60f
7:36  -  3 mph 1018.7mb 69f 60f
7:30  -  3 mph 1018.7mb 69f 60f
7:24 2 3 mph 1018.6mb 69f 60f
7:18 1 5 mph 1018.6mb 69f 60f
7:12 3 5 mph 1018.5mb 69f 60f
7:06 3 6 mph 1018.6mb 69f 60f
7:00 3 6 mph 1018.6mb 69f 60f
6:54 1 5 mph 1018.7mb 69f 60f
6:48 1 5 mph 1018.8mb 69f 60f
6:42 2 5 mph 1019mb 69f 60f
6:36 2 3 mph 1019.1mb 69f 60f
6:30 2 5 mph 1019.2mb 69f 60f
6:24 2 5 mph 1019.3mb 69f 60f
6:18 1 3 mph 1019.3mb 69f 60f
6:12 2 7 mph 1019.4mb 69f 60f
6:06 3 8 mph 1019.4mb 69f 60f
6:00 3 6 mph 1019.5mb 69f 60f
5:54 2 5 mph 1019.5mb 69f 60f
5:48 2 5 mph 1019.6mb 69f 60f
5:42 2 5 mph 1019.6mb 69f 60f
5:36 3 5 mph 1019.7mb 69f 61f
5:30 3 6 mph 1020mb 69f 61f
5:24 1 8 mph 1020mb 69f 62f
5:18 3 8 mph 1019.8mb 69f 62f
5:12 5 6 mph 1020.3mb 69f 63f
5:06 2 5 mph 1020mb 69f 63f
5:00 2 6 mph 1019.9mb 69f 64f
4:54  -  3 mph 1019.8mb 69f 64f
4:48 5 6 mph 1019.6mb 69f 64f
4:42 6 8 mph 1019.5mb 69f 64f
4:36 6 10 mph 1019.4mb 69f 64f
4:30 6 9 mph 1019.2mb 69f 65f
4:24 7 9 mph 1019mb 69f 65f
4:18 8 10 mph 1018.9mb 69f 65f
4:12 9 13 mph 1018.9mb 69f 65f
4:06 10 13 mph 1018.9mb 69f 65f
4:00 8 11 mph 1018.9mb 69f 65f
3:54 6 10 mph 1018.7mb 69f 65f
3:48 9 13 mph 1018.9mb 69f 65f
3:42 9 14 mph 1018.9mb 69f 65f
3:36 8 15 mph 1018.8mb 69f 65f
3:30 8 14 mph 1018.9mb 69f 65f
3:24 6 11 mph 1019mb 69f 65f
3:18 7 10 mph 1019.2mb 69f 65f
3:12 7 10 mph 1019.2mb 69f 65f
3:06 7 15 mph 1019.2mb 69f 65f
3:00 9 15 mph 1019.3mb 69f 65f
2:54 6 13 mph 1019.5mb 69f 65f
2:48 11 15 mph 1019.4mb 69f 65f
2:42 13 17 mph 1019.6mb 69f 65f
2:36 8 15 mph 1019.7mb 69f 65f
2:30 11 16 mph 1019.7mb 69f 65f
2:24 13 17 mph 1019.9mb 69f 66f
2:18 13 17 mph 1019.9mb 69f 65f
2:12 13 18 mph 1020.1mb 69f 66f
2:06 11 20 mph 1020.3mb 69f 65f
2:00 10 16 mph 1020.3mb 69f 66f
1:54 13 18 mph 1020.2mb 69f 67f
1:48 10 20 mph 1020.5mb 69f 66f
1:42 10 17 mph 1020.5mb 69f 66f
1:36 11 16 mph 1020.7mb 69f 66f
1:30 14 18 mph 1020.5mb 69f 66f
1:24 14 20 mph 1020.8mb 69f 66f
1:18 13 23 mph 1020.8mb 69f 66f
1:12 11 18 mph 1020.9mb 69f 67f
1:06 17 22 mph 1021mb 69f 67f
1:00 16 23 mph 1020.8mb 69f 67f
12:54 15 23 mph 1020.8mb 69f 67f
12:48 13 18 mph 1020.9mb 69f 67f
12:42 16 22 mph 1020.9mb 69f 67f
12:36 15 21 mph 1021.2mb 69f 66f
12:30 13 20 mph 1021.3mb 69f 67f
12:24 10 16 mph 1021.3mb 69f 67f
12:18 14 20 mph 1021.4mb 69f 67f
12:12 8 18 mph 1021.4mb 69f 67f
12:06 13 16 mph 1021.6mb 69f 67f
12:00 7 13 mph 1021.8mb 69f 66f
11:54 7 11 mph 1021.9mb 69f 67f
11:48 9 15 mph 1022.1mb 69f 66f
11:42 9 13 mph 1022.1mb 69f 66f
11:36 10 13 mph 1022.1mb 69f 66f
11:30 8 13 mph 1022.1mb 69f 66f
11:24 9 14 mph 1022.2mb 69f 66f
11:18 7 10 mph 1022mb 69f 65f
11:12 6 11 mph 1021.9mb 69f 65f
11:06 8 11 mph 1021.9mb 69f 65f
11:00 8 15 mph 1021.9mb 69f 65f
10:54 8 14 mph 1021.7mb 69f 65f
10:48 9 15 mph 1021.6mb 69f 65f
10:42 10 15 mph 1021.6mb 69f 65f
10:36 5 10 mph 1021.5mb 69f 65f
10:30 8 10 mph 1021.5mb 69f 64f
10:24 5 9 mph 1021.5mb 69f 64f
10:18 7 11 mph 1021.7mb 69f 64f
10:12 5 9 mph 1021.7mb 69f 63f
10:06 7 13 mph 1021.8mb 69f 63f
10:00 6 10 mph 1022.1mb 69f 63f
9:54 7 11 mph 1022.3mb 69f 62f
9:48 6 11 mph 1022.1mb 69f 63f
9:42 5 10 mph 1022mb 69f 62f
9:36 6 9 mph 1022.2mb 69f 62f
9:30 3 5 mph 1022.3mb 69f 62f
9:24 2 6 mph 1022.3mb 69f 62f
9:18 3 7 mph 1022.3mb 69f 62f
9:12 3 6 mph 1022.4mb 69f 61f
9:06 2 7 mph 1022.5mb 69f 61f
9:00 5 8 mph 1022.3mb 69f 60f
8:54 6 9 mph 1022.4mb 69f 60f
8:48 6 9 mph 1022.5mb 69f 60f
8:42 5 8 mph 1022.5mb 69f 60f
8:36 5 7 mph 1022.6mb 69f 60f
8:30 5 8 mph 1022.6mb 69f 58f
8:24 5 8 mph 1022.6mb 69f 58f
8:18 2 8 mph 1022.7mb 69f 58f
8:12 5 10 mph 1022.8mb 69f 57f
8:06 7 10 mph 1022.9mb 69f 56f
8:00 6 9 mph 1023mb 69f 56f
7:54 8 11 mph 1023.1mb 69f 55f
7:48 8 11 mph 1023.2mb 69f 55f
7:42 9 11 mph 1023.3mb 69f 55f
7:36 9 11 mph 1023.3mb 69f 54f
7:30 7 11 mph 1023.3mb 69f 55f
7:24 8 11 mph 1023.3mb 69f 54f
7:18 7 11 mph 1023.3mb 69f 54f
7:12 6 10 mph 1023.3mb 69f 55f
7:06 7 9 mph 1023.2mb 69f 55f
7:00 5 10 mph 1023.2mb 69f 55f
6:54 6 9 mph 1023.3mb 69f 55f
6:48 5 8 mph 1023.3mb 69f 55f
6:42 6 9 mph 1023.4mb 69f 54f
6:36 6 9 mph 1023.4mb 69f 55f
6:30 6 10 mph 1023.3mb 69f 55f
6:24 7 11 mph 1023.3mb 69f 55f
6:18 7 9 mph 1023.2mb 69f 55f
6:12 6 9 mph 1023mb 69f 55f
6:06 5 8 mph 1023mb 69f 55f
6:00 5 8 mph 1023mb 69f 55f